Showing default

LEMUR 2 JIN-LUEN, 43182

Orbit data source: Space-Track

LEMUR 2 JIN-LUEN, 43182 is a payload satellite owned by Spire (US) in SSO that was launched on Thu, 01 Feb 2018 UTC via a SOYUZ-2-1A launch vehicle from the Vostochny Cosmodrome (VOSTO). Payload-class satellites include a variety of spacecraft equipped with specific instruments for various scientific and technological missions. These include communications satellites like Starlink; space stations such as the ISS; scientific satellites like the Hubble; Earth observation satellites from companies like Planet Labs, Umbra, and HawkEye 360; GPS; miniature CubeSats for education and research; and military/defense satellites.

Loading next visibility...
Identifier
43182, 2018-014C
Orbit
SSO
Last TLE update
12 hours ago
Origin
Manufacturer
Spire/Glasgow
Mission
Operational Commercial Com/MetRO
Bus & Motor
CUBESAT 3U, Unknown motor
Mass
4.6 kg wet, 4.6 kg dry
Launch date (UTC)
2018-02-01 (7 years ago)
Launch vehicle
SOYUZ-2-1A
Launch site
Vostochny Cosmodrome (VOSTO)
Object type
Payload
Rocket body
Debris
Shape & HBR
Box + 2 Pan, 0.7 m
Radar Cross Section
0.124 m², Small (<0.1 m²)

Expand to show TLE details & history

TLE from 12 hours ago
0 LEMUR 2 JIN-LUEN
1 43182U 18014C   25183.74032035  .00021051  00000-0  57564-3 0  9994
2 43182  97.5560  96.6033 0010168 100.5259 259.7131 15.37346617406716
Epoch: 2025-07-02T17:46Z
TLE epoch observation values (Epoch: 2025-07-02T17:46:03.678Z)
Latitude
-0.00002°
Longitude
-90.92911°
Altitude
458.316 km
Speed
7.637 km/s
True Right ascension
06h 26m 24s
True Declination
0° 00' 00"
Sunlit
Object was in daylight at epoch
Visualization orbit readout
Latitude
21.42085°
Longitude
92.53519°
Altitude
453.177 km
Speed
7.644 km/s
Apparent Right ascension
21h 43m 38s
Apparent Declination
-30° 56' 30"
Sunlit
Object is in full shadow
Visualization observer readout
Local Sidereal Time
17:08:48
Azimuth
126.633° SE
Elevation
-5.223°
Doppler factor
1
Orbital elements
Apogee altitude
457.852 km
Perigee altitude
443.965 km
Semi-major axis
6,829.046 km
Eccentricity
0.00102
Inclination
97.556°
RAAN
96.6033°
Arg. of periapsis
100.5259°
True anomaly
Unknown
Mean anomaly
259.7131°
Eccentric anomaly
Unknown
Mean motion
3.84595 °/min
Orbital period
93.61 mins
BSTAR
0.00057564
Loading maneuver chart data...
Loading SW <> Apogee altitude chart data...
Loading historical data...
Loading historical data...
Loading historical data...
Loading historical data...
Loading historical data...
Loading historical data...
Loading historical data...

LEMUR 2 JIN-LUEN Visibility forecast

Observer location: undefined°, undefined°

Span
Click to sort rows by Start time (UTC) header in descending order
Start Az.
Max El. time (UTC)
Max El. Az.
Max El.
End time (UTC)
End Az.
6 mins2025-07-03 06:49:18.382Z23.989° NE2025-07-03 06:52:18.382Z99.036° ESE37.677°2025-07-03 06:55:18.382Z176.045° S
4 mins2025-07-03 18:54:18.382Z223.876° SW2025-07-03 18:56:18.382Z277.398° WNW21.923°2025-07-03 18:58:18.382Z316.691° NNW
|